铱星星座 126星 (IRIDIUM 126)

导读 | 星芒AI

IRIDIUM 126 是 IRIDIUM 卫星星座中的一个通信卫星,属于美国 IRIDIUM 公司部署的第二代卫星系统(Iridium NEXT)。该卫星运行在低地球轨道(LEO),主要用于提供全球范围的移动卫星通信服务,包括语音通话和数据传输。IRIDIUM 126 于 2017 年发射,具备先进通信技术和抗干扰能力,支持航空、航海、军事和应急通信等应用。该卫星系统通过星间链路实现全球无缝覆盖,提升了通信的稳定性和可靠性。

基本信息
目录编号:
42809
目录名称:
IRIDIUM 126
国际标识:
2017-039G
轨道中心:
EARTH
卫星名称:
铱星星座 126星
卫星全名:
铱星星座 126星 (IRIDIUM 126)
卫星状态:
在轨 (已飞行3048 天)
发射日期:
2017-06-25 UTC
国别 :
美国 (US)
星等 :
--
轨道信息
数据来源 国际轨道数据 AOE轨道数据
星历时间 2025-10-28T18:44:15+0800
20小时前
查看轨道信息
2025-10-27T11:00:00+0800
2天前
查看轨道信息
半长轴 7155.805km 7155.81km
偏心率 0.0002164 0.0002217
轨道倾角 86.393° 86.394°
近地点辐角 87.586° 87.630°
升交点赤经 90.523° 91.076°
平近点角 272.558° 289.060°
近地点 776.121km 776.088km
远地点 779.219km 779.262km
周期 100.403分钟 100.403分钟
每日圈数 14.342175 14.342162
详细信息
平衡模式:
三轴稳定
覆盖范围:
全球
运营商:
铱星通信公司
运营商所在国:
美国
制造商(研发单位):
阿莱尼亚宇航公司
制造商所在国:
意大利
使用方式:
暂无
卫星简介
铱星(Iridium)是由共66个运作中的通信卫星组成的卫星通信系统。这个系统原本规划77个通信卫星,所以用原子序数为77的铱元素来命名。铱卫星允许人们使用手持型电子设备进行全球性的语音及数据通讯。该卫星仍在工作。
2D轨道图
3D轨道图
轨道高度分析图
轨道倾角分析图
轨道综合分析图
查看轨道综合分析图